Preview of NWS' New Version of Forecast
This preview is not operational and should not be used for support decisions.

Regional Weather Roundup (RWR)

Issued by National Weather Service (NWS)

                            
000
ASPQ40 PGUM 190410
RWRPQ 
WEATHER ROUNDUP FOR THE MARIANAS AND MICRONESIA
NATIONAL WEATHER SERVICE TIYAN GU
200 PM CHST MON AUG 19 2019

GUZ001>004-190500-
MARIANA ISLANDS-
  
CITY           SKY/WX    TMP DP  RH WIND       PRES   REMARKS
GUAM AIRPORT   PTSUNNY   84  75  74 S12       29.76F HX  92           
ANDERSEN AFB   NOT AVBL                                               
ROTA AIRPORT   LGT RAIN  86  73  66 SE13      29.74F HX  93           
TINIAN AP      PTSUNNY   88  77  70 SE13      29.75F HX 100           
SAIPAN AP      CLOUDY    88  79  74 SE17G23   29.76F HAZE    HX 102   

$$

PMZ161-190500-
REPUBLIC OF PALAU-
  
CITY           SKY/WX    TMP DP  RH WIND       PRES   REMARKS
KOROR AP       CLOUDY    79  77  94 W9        29.77F                  
KOROR WSO      NOT AVBL                                               

$$

PMZ171>174-190500-
FEDERATED STATES OF MICRONESIA-
  
CITY           SKY/WX    TMP DP  RH WIND       PRES   REMARKS
YAP AIRPORT    CLOUDY    84  75  74 VRB7      29.75F HX  92           
CHUUK AP       CLOUDY    88  81  79 VRB6      29.76F HX 105           
POHNPEI AP     CLOUDY    88  77  70 NW7       29.77S HX 100           
POHNPEI WSO    CLOUDY    86  79  79 NW2       29.79F HX  99           
KOSRAE AP      CLOUDY    88  77  70 N9        29.75F HX 100           

$$

PMZ181-190500-
REPUBLIC OF THE MARSHALL ISLANDS-
  
CITY           SKY/WX    TMP DP  RH WIND       PRES   REMARKS
KWAJALEIN AP   LGT RAIN  84  77  79 S3        29.76F HX  94           
MAJURO AP      PTSUNNY   86  79  79 SW12      29.77F HX  99           
MAJURO WSO     PTSUNNY   86  77  74 W12       29.75F HX  97           

$$